Powrót do katalogu

COSMOS 1727

AktywnyMilitariaPO
NORAD 16510·PAYLOAD·🇷🇺 Russia

Wystrzelony Jan 23, 1986 z Plesetsk Cosmodrome

Loading…

Następne Przeloty (najbliższe 24 godziny)

TLE

ŚwieżeSource: Space-Track

Epoka: Sep 14, 2026, 18:51 UTC

1 16510U 86008A   26257.78587410  .00000040  00000-0  25882-4 0  9990
2 16510  82.9435 266.6877 0037480 344.6153 188.2527 13.74690724 37990

Śledź COSMOS 1727 w czasie rzeczywistym z AllMySat

Download on the App Store